Regional Weather Roundup
Issued by NWS Northern Indiana

Home | Current Version | Previous Version | Text Only | Print | Product List | Glossary Off
Versions: 1 2 3 4 5 6 7 8 9 10 11 12 13 14 15 16 17 18 19 20 21 22 23 24 25 26 27 28 29 30 31 32 33 34 35 36 37 38 39 40 41 42 43 44 45 46 47 48 49 50

000
ASUS43 KIWX 170710
RWRIWX

KIWX WEATHER ROUNDUP
NATIONAL WEATHER SERVICE NORTHERN INDIANA
200 AM EST WED JAN 17 2018

NOTE: "FAIR" INDICATES FEW OR NO CLOUDS BELOW 12,000 FEET WITH NO
SIGNIFICANT WEATHER AND/OR OBSTRUCTIONS TO VISIBILITY.

* THESE STATIONS ARE NOT UNDER NWS QUALITY CONTROL. THEY ALSO MAY NOT
  REPORT WEATHER SUCH AS PRECIPITATION OR FOG.

INZ001>027-170800-
NORTHERN INDIANA

CITY           SKY/WX    TMP DP  RH WIND       PRES   REMARKS
GARY*          FAIR      12   7  81 W6        30.52S WCI   3
VALPARAISO     FAIR       9   5  84 W9        30.49R WCI  -4
MICHIGAN CITY* LGT SNOW  19  19 100 CALM      30.49S
LAPORTE*       LGT SNOW  14  12  91 CALM      30.48S
KNOX*          CLOUDY    12   9  85 W6        30.49S WCI   3
SOUTH BEND     CLOUDY    10   8  92 SW3       30.48R
GOSHEN         FAIR       1  -3  83 CALM      30.46F
MONTICELLO*    CLOUDY     9   5  84 W7        30.51S WCI  -3
LOGANSPORT*    LGT SNOW   9   5  85 SW8       30.52R WCI  -4
ROCHESTER*     FLURRIES  10   9  92 SW3       30.49S
WARSAW*        FAIR       5   3  92 CALM      30.47S
AUBURN*        FAIR       5   1  85 CALM      30.48S
FORT WAYNE     FAIR       2  -2  83 S7        30.50S WCI -11
HUNTINGTON*    FAIR       1  -2  88 S3        30.49S
PERU/GRISSOM   CLOUDY     9   9 100 W9        30.49S WCI  -5
MARION*        FAIR       4   0  86 CALM      30.50F

$$
INZ028>050-170800-
CENTRAL INDIANA

CITY           SKY/WX    TMP DP  RH WIND       PRES   REMARKS
LAFAYETTE      FAIR       3   1  91 W7        30.55R WCI  -9
MUNCIE*        CLOUDY     9   4  80 SW7       30.49F WCI  -2
INDIANAPOLIS   FLURRIES   5   2  87 SW8       30.53F WCI  -8

$$
MIZ043>046-050>051-056>058-064>065-071>073-077>080-170800-
SOUTHWEST LOWER MICHIGAN

CITY           SKY/WX    TMP DP  RH WIND       PRES   REMARKS
BATTLE CREEK   FAIR       2  -2  83 S5        30.44F WCI  -8
BENTON HARBOR  MOCLDY     4   0  83 E5        30.48S WCI  -5
COLDWATER*     FAIR       0  -3  87 CALM      30.45S
HILLSDALE*     FLURRIES   5   1  85 W6        30.41S WCI  -6
HOLLAND        CLOUDY     8   3  80 CALM      30.46S
GRAND RAPIDS   MOCLDY     2  -1  88 SW3       30.44S
KALAMAZOO      FAIR       1  -4  79 CALM      30.46S
STURGIS*       FAIR       2  -2  84 MISG      30.45S FOG
THREE RIVERS*    N/A      0  -4  82 CALM      30.47S

$$
OHZ001>008-015>018-024>025-170800-
NORTHWEST OHIO

CITY           SKY/WX    TMP DP  RH WIND       PRES   REMARKS
WAUSEON*       CLOUDY     3   1  92 W7        30.47S WCI  -9
DEFIANCE       FAIR      -1  -8  72 CALM      30.49F
FINDLAY        FAIR       4   0  83 W7        30.47S WCI  -8
TOLEDO EXPRESS MOCLDY     2   0  91 SW6       30.48S WCI  -9
TOLEDO METCALF CLOUDY     4   0  83 SW10      30.49S WCI -11
LIMA           CLOUDY     8   5  87 W10       30.47S WCI  -6

$$
AND FOR LAKE MICHIGAN COASTAL AND OPEN LAKE BUOY OBSERVATIONS

STATION/POSITION TEMP    WIND        PRES    VSBY  WAVE
                 AIR SEA DIR/SP/G                  HT/PER
                 (F)     (DEG/KT/KT) (MB)    (MI)  (FT/S)
CALUMET HARBOR           270/  6/  8   N/A
MICHIGAN CITY     23     340/  7/ 13   N/A
BURNS HARBOR      22     310/ 15/ 19 1032.5F
SAINT JOSEPH      13     120/  4/  6 1031.8

$$
&&




USA.gov is the U.S. government's official web portal to all federal, state and local government web resources and services.